Location: Ferchesar
(52.6477°N, 12.4298°E)
Time: 13:44:00
(UTC+01:00)

Tiros 1 despin weight - Pass Details

Date: 05 December 2021
Orbit: 592 x 641 km, 48.2° (Epoch: 18 January)

Event Time Altitude Azimuth Distance (km) Brightness Sun altitude
Rises 16:39:16 0° 270° (W) 2,828 ? -6.2°
Reaches altitude 10° 16:41:38 10° 263° (W) 1,923 ? -6.5°
Maximum altitude 16:45:45 40° 194° (SSW) 886 ? -7.0°
Drops below altitude 10° 16:49:52 10° 125° (SE) 1,924 ? -7.6°
Sets 16:52:14 0° 118° (ESE) 2,829 ? -7.9°
